TimeHST,TemperatureF,Dew PointF,Humidity,Sea Level PressureIn,VisibilityMPH,Wind Direction,Wind SpeedMPH,Gust SpeedMPH,PrecipitationIn,Events,Conditions,WindDirDegrees,DateUTC
12:53 AM,73.0,64.9,76,30.01,10.0,East,21.9,27.6,0.00,,Mostly Cloudy,80,2013-01-09 10:53:00
1:53 AM,73.0,64.9,76,30.00,10.0,ENE,20.7,28.8,N/A,,Overcast,70,2013-01-09 11:53:00
2:53 AM,73.0,64.0,73,29.98,10.0,East,18.4,-,N/A,,Overcast,90,2013-01-09 12:53:00
3:53 AM,73.0,64.9,76,29.98,10.0,East,18.4,-,N/A,,Overcast,80,2013-01-09 13:53:00
4:53 AM,73.0,64.9,76,29.97,10.0,East,18.4,-,N/A,,Overcast,80,2013-01-09 14:53:00
5:53 AM,72.0,66.0,81,29.98,10.0,ENE,16.1,-,N/A,,Overcast,60,2013-01-09 15:53:00
6:44 AM,73.4,66.2,78,29.99,10.0,East,15.0,-,N/A,,Overcast,90,2013-01-09 16:44:00
6:53 AM,73.0,64.9,76,29.99,10.0,East,17.3,-,N/A,,Overcast,90,2013-01-09 16:53:00
7:03 AM,73.4,64.4,73,30.00,10.0,East,15.0,-,N/A,,Overcast,90,2013-01-09 17:03:00
7:12 AM,73.4,64.4,73,30.00,10.0,East,17.3,-,N/A,,Overcast,90,2013-01-09 17:12:00
7:53 AM,73.9,66.0,76,30.01,10.0,East,12.7,-,N/A,,Mostly Cloudy,90,2013-01-09 17:53:00
8:09 AM,73.4,66.2,78,30.01,10.0,East,15.0,-,N/A,,Overcast,90,2013-01-09 18:09:00
8:36 AM,75.2,66.2,73,30.02,10.0,East,16.1,21.9,N/A,,Mostly Cloudy,90,2013-01-09 18:36:00
8:53 AM,73.9,66.0,76,30.01,10.0,East,16.1,-,N/A,,Mostly Cloudy,80,2013-01-09 18:53:00
9:08 AM,75.2,66.2,73,30.02,10.0,East,17.3,-,N/A,,Overcast,90,2013-01-09 19:08:00
9:38 AM,73.4,66.2,78,30.03,10.0,ENE,17.3,-,N/A,,Mostly Cloudy,70,2013-01-09 19:38:00
9:53 AM,73.9,66.0,76,30.03,10.0,East,17.3,-,N/A,,Overcast,80,2013-01-09 19:53:00
10:24 AM,75.2,66.2,73,30.03,10.0,East,15.0,-,N/A,,Overcast,80,2013-01-09 20:24:00
10:53 AM,75.9,66.9,74,30.01,10.0,East,17.3,23.0,N/A,,Mostly Cloudy,80,2013-01-09 20:53:00
11:19 AM,75.2,66.2,73,30.01,10.0,East,15.0,-,N/A,,Mostly Cloudy,80,2013-01-09 21:19:00
11:53 AM,77.0,66.9,71,29.99,10.0,East,17.3,-,N/A,,Mostly Cloudy,80,2013-01-09 21:53:00
12:03 PM,75.2,66.2,73,29.99,10.0,East,15.0,-,N/A,,Mostly Cloudy,80,2013-01-09 22:03:00
12:53 PM,75.9,68.0,76,29.96,10.0,East,13.8,-,N/A,,Overcast,80,2013-01-09 22:53:00
1:53 PM,75.9,66.9,74,29.95,10.0,ENE,15.0,-,N/A,,Overcast,70,2013-01-09 23:53:00
2:53 PM,75.9,66.9,74,29.94,10.0,ENE,13.8,-,N/A,,Scattered Clouds,70,2013-01-10 00:53:00
3:22 PM,75.2,66.2,73,29.94,10.0,ENE,13.8,-,N/A,,Mostly Cloudy,70,2013-01-10 01:22:00
3:34 PM,75.2,66.2,73,29.95,10.0,East,16.1,-,N/A,,Overcast,80,2013-01-10 01:34:00
3:43 PM,75.2,66.2,73,29.95,10.0,East,15.0,-,N/A,,Overcast,80,2013-01-10 01:43:00
3:53 PM,75.0,66.0,73,29.94,10.0,ENE,18.4,-,N/A,,Overcast,70,2013-01-10 01:53:00
4:00 PM,75.2,66.2,73,29.95,10.0,ENE,16.1,-,N/A,,Overcast,70,2013-01-10 02:00:00
4:30 PM,73.4,66.2,78,29.96,10.0,ENE,16.1,-,N/A,,Overcast,70,2013-01-10 02:30:00
4:49 PM,73.4,66.2,78,29.96,10.0,ENE,17.3,-,N/A,,Overcast,70,2013-01-10 02:49:00
4:53 PM,73.9,66.0,76,29.95,10.0,ENE,18.4,-,N/A,,Overcast,60,2013-01-10 02:53:00
5:40 PM,73.4,66.2,78,29.96,10.0,ENE,16.1,-,N/A,,Overcast,70,2013-01-10 03:40:00
5:53 PM,73.9,66.9,79,29.96,10.0,ENE,18.4,-,N/A,,Overcast,70,2013-01-10 03:53:00
6:53 PM,73.0,66.9,81,29.98,10.0,ENE,15.0,-,N/A,,Overcast,70,2013-01-10 04:53:00
7:32 PM,73.4,66.2,78,29.99,10.0,East,19.6,-,N/A,,Overcast,80,2013-01-10 05:32:00
7:40 PM,73.4,66.2,78,29.99,10.0,East,18.4,-,N/A,,Overcast,80,2013-01-10 05:40:00
7:50 PM,73.4,66.2,78,30.00,10.0,ENE,18.4,-,N/A,,Overcast,70,2013-01-10 05:50:00
7:53 PM,73.9,66.9,79,29.99,10.0,ENE,19.6,-,N/A,,Overcast,70,2013-01-10 05:53:00
8:00 PM,73.4,66.2,78,30.00,10.0,East,18.4,-,N/A,,Overcast,80,2013-01-10 06:00:00
8:07 PM,73.4,66.2,78,30.00,10.0,ENE,19.6,25.3,N/A,,Overcast,70,2013-01-10 06:07:00
8:44 PM,73.4,66.2,78,30.01,10.0,ENE,18.4,-,N/A,,Overcast,70,2013-01-10 06:44:00
8:53 PM,73.0,66.9,81,30.01,10.0,ENE,19.6,-,N/A,,Overcast,70,2013-01-10 06:53:00
9:09 PM,73.4,66.2,78,30.02,10.0,ENE,17.3,-,N/A,,Overcast,70,2013-01-10 07:09:00
9:53 PM,73.0,66.0,79,30.01,10.0,East,19.6,25.3,N/A,,Overcast,80,2013-01-10 07:53:00
10:53 PM,73.0,66.0,79,30.01,10.0,East,15.0,-,N/A,,Overcast,90,2013-01-10 08:53:00
11:42 PM,73.4,66.2,78,30.01,10.0,East,17.3,-,N/A,,Mostly Cloudy,80,2013-01-10 09:42:00
11:53 PM,73.0,66.0,79,29.99,10.0,ENE,17.3,-,N/A,,Mostly Cloudy,70,2013-01-10 09:53:00